Location: *
(43.4667°N, 11.6833°E)
Time: 04:35:06
(UTC+00:00)

Meteor 1-18 Rocket - Pass Details

Date: 19 July 2019
Orbit: 836 x 910 km, 81.2° (Epoch: 20 August)

Event Time Altitude Azimuth Distance (km) Brightness Sun altitude
Rises 23:05:51 0° 351° (N) 3,430 8.7 -25.7°
Reaches altitude 10° 23:08:18 10° 354° (N) 2,481 7.7 -25.7°
Maximum altitude 23:13:55 70° 78° (ENE) 892 4.2 -25.8°
Enters shadow 23:14:36 63° 124° (SE) 936 4.2 -25.8°
